Back to catalog

SAR LUPE 4

AliveMilitaryPO
NORAD 32750·PAYLOAD·🇩🇪 Germany

Launched Mar 27, 2008 from Plesetsk Cosmodrome

Loading…

Next Passes (next 24 hours)

TLE

StaleSource: Mike McCants

Epoch: Feb 4, 2026, 18:03 UTC

1 32750U 08014A   26035.75259379 0.00007000  00000-0  25550-3 0    03
2 32750  98.1305  55.7157 0002972 192.8840 167.1158 15.28161042    06

Track SAR LUPE 4 in real time with AllMySat

Download on the App Store